STARLINK-3907, 52501

Orbit data source: Space-Track

STARLINK-3907, 52501 is a payload satellite owned by SpaceX/Seattle (US) in LEO that was launched on Fri, 06 May 2022 UTC via an FALCON 9 launch vehicle from the Air Force Eastern Test Range (AFETR). Payload-class satellites include a variety of spacecraft equipped with specific instruments for various scientific and technological missions. These include communications satellites like Starlink; space stations such as the ISS; scientific satellites like the Hubble; Earth observation satellites from companies like Planet Labs, Umbra, and HawkEye 360; GPS; miniature CubeSats for education and research; and military/defense satellites.

Loading next visibility...
Identifier
52501, 2022-049BC
Orbit
LEO
Country
Flag of USUS
Related business
Manufacturer
SpaceX/Seattle
Mission
Operational Commercial Communications
Bus & Motor
STARLINK, Unknown motor
Mass
297 kg wet, ~220 kg dry
Launch date (UTC)
2022-05-06 (4 years ago)
Launch vehicle
FALCON 9
Launch site
Air Force Eastern Test Range (AFETR)
Object type
Payload
Rocket body
Debris
Shape & HBR
Box + 1 Pan, 10.1 m
Radar Cross Section
13.562 m², Large (>1 m²)

Expand to show TLE details & history
Last TLE update: 22 hours ago

TLE from 22 hours ago
0 STARLINK-3907
1 52501U 22049BC  26193.52109051  .00000266  00000-0  34838-4 0  9998
2 52501  53.1590 208.2783 0001247  72.8926 287.2202 15.08836308231243
Epoch: 2026-07-12T12:30Z
TLE epoch observation values (Epoch: 2026-07-12T12:30:22.220Z)
Latitude
0.00001°
Longitude
90.26696°
Altitude
540.391 km
Speed
7.594 km/s
True Right ascension
13h 53m 06s
True Declination
0° 00' 00"
Sunlit
Object was in daylight at epoch
Visualization orbit readout
Latitude
Unknown
Longitude
Unknown
Altitude
Unknown
Speed
Unknown
Apparent Right ascension
Unknown
Apparent Declination
Unknown
Sunlit
N/A
Visualization observer readout
Local Sidereal Time
22:40:13
Azimuth
Unknown
Elevation
Unknown
Doppler factor
Unknown
Orbital elements
Apogee altitude
540.872 km
Perigee altitude
539.146 km
Semi-major axis
6,918.146 km
Eccentricity
0.00012
Inclination
53.159°
RAAN
208.2783°
Arg. of periapsis
72.8926°
True anomaly
287.20655°
Mean anomaly
287.2202°
Eccentric anomaly
287.21338°
Mean motion
3.77189 °/min
Orbital period
95.44 mins
BSTAR
0.000034838
Loading maneuver chart data...
Computing Atmospheric mass density...
Loading historical data...
Loading historical data...
Loading historical data...
Loading historical data...
Loading historical data...
Loading historical data...
Loading historical data...

Documentation

Showing up to 5 results
|